Regional Weather Roundup
Issued by NWS Raleigh/Durham, NC

Home | Current Version | Previous Version | Text Only | Print | Product List | Glossary On
Versions: 1 2 3 4 5 6 7 8 9 10 11 12 13 14 15 16 17 18 19 20 21 22 23 24 25 26 27 28 29 30 31 32 33 34 35 36 37 38 39 40 41 42 43 44 45 46 47 48 49 50
000
ASUS42 KRAH 281610
RWRRAH
NORTH CAROLINA WEATHER ROUNDUP
NATIONAL WEATHER SERVICE RALEIGH NC
1200 PM EDT THU MAY 28 2015

NOTE: "FAIR" INDICATES FEW OR NO CLOUDS BELOW 12,000 FEET WITH NO
SIGNIFICANT WEATHER AND/OR OBSTRUCTIONS TO VISIBILITY.

NCZ001-053-055-056-065-067-281700-
WESTERN NORTH CAROLINA

CITY           SKY/WX    TMP DP  RH WIND       PRES   REMARKS
ASHEVILLE      MOSUNNY   79  62  56 N8        30.29S
JEFFERSON      PTSUNNY   74  54  49 E5        30.33R
MORGANTON      SUNNY     80  61  51 CALM      30.29S
HICKORY        MOSUNNY   81  64  56 VRB3      30.24S
RUTHERFORDTON  MOSUNNY   82  64  54 CALM      30.24S
MOUNT AIRY     MOSUNNY   83  67  59 S3        30.25S
BOONE          MOSUNNY   75  57  53 CALM      30.33S
$$

NCZ021-022-025-041-071-084-088-281700-
CENTRAL NORTH CAROLINA

CITY           SKY/WX    TMP DP  RH WIND       PRES   REMARKS
CHARLOTTE      PTSUNNY   84  61  45 SW6       30.23F
GREENSBORO     PTSUNNY   80  63  55 CALM      30.22S
WINSTON-SALEM  PTSUNNY   81  63  54 CALM      30.24S
RALEIGH-DURHAM PTSUNNY   80  71  74 SW5       30.25S
FORT BRAGG     PTSUNNY   81  68  65 SE8       30.23S
FAYETTEVILLE   CLOUDY    77  69  76 S6        30.24F
BURLINGTON     SUNNY     81  70  69 S6        30.23S
LAURINBURG     PTSUNNY   80  67  64 SW9       30.25S
$$

NCZ011-015-027-028-043-044-047-080-103-281700-
NORTHEASTERN NORTH CAROLINA

CITY           SKY/WX    TMP DP  RH WIND       PRES   REMARKS
ROCKY MT-WILSO PTSUNNY   80  71  74 SW6       30.24S
GREENVILLE     PTSUNNY   81  68  65 S3        30.24F
WASHINGTON     SUNNY     80  67  64 CALM      30.24F
ELIZABETH CITY MOSUNNY   81  69  67 SW8       30.24S
MANTEO         SUNNY     77  64  64 S14       30.26S
CAPE HATTERAS  CLOUDY    78  60  53 S6        30.28S
$$

NCZ078-087-090-091-093-098-101-281700-
SOUTHEASTERN NORTH CAROLINA

CITY           SKY/WX    TMP DP  RH WIND       PRES   REMARKS
LUMBERTON      CLOUDY    80  68  66 S6        30.24F
GOLDSBORO      PTSUNNY   81  67  62 CALM      30.22F
KINSTON        PTSUNNY   81  66  61 SW5       30.25S
KENANSVILLE    MOSUNNY   80  64  58 CALM      30.25F
NEW BERN       CLOUDY    82  65  56 SE8       30.26F
CHERRY POINT   PTSUNNY   81  63  54 VRB6      30.26F
BEAUFORT       SUNNY     78  64  61 SE10      30.26F
JACKSONVILLE   SUNNY     81  64  56 E8        30.25S
WILMINGTON     SUNNY     81  63  54 E5        30.25S
$$



USA.gov is the U.S. government's official web portal to all federal, state and local government web resources and services.